KC0AFB Weather Reports


Display with metric or nautical units.
time (UTC)temp
F
wind
direction
speed
MPH
gust
MPH
rain 1hr
in
rain 24hr
in
rain mn
in
humidity
%
barometer
mb
20260505085022 33 283 4.0 5.0 0.00 0.00 0.00 71 1012.4
20260505084520 33 278 4.0 5.0 0.00 0.00 0.00 70 1012.5
20260505084018 33 299 5.0 6.0 0.00 0.00 0.00 70 1012.2
20260505083515 33 280 4.0 6.0 0.00 0.00 0.00 70 1012.4
20260505083012 33 261 6.0 7.0 0.00 0.00 0.00 70 1012.5
20260505082507 33 294 4.0 7.0 0.00 0.00 0.00 70 1012.4
20260505082004 33 276 3.0 3.0 0.00 0.00 0.00 70 1012.5
20260505081501 33 303 3.0 3.0 0.00 0.00 0.00 70 1012.5
20260505080957 33 301 3.0 5.0 0.00 0.00 0.00 69 1012.2
20260505080454 34 284 3.0 3.0 0.00 0.00 0.00 68 1012.5
20260505075949 34 272 3.0 5.0 0.00 0.00 0.00 68 1012.4
20260505075446 35 270 5.0 5.0 0.00 0.00 0.00 66 1012.4
20260505074944 35 285 7.0 9.0 0.00 0.00 0.00 66 1012.5
20260505074441 35 310 4.0 6.0 0.00 0.00 0.00 65 1012.5
20260505073938 35 287 3.0 3.0 0.00 0.00 0.00 65 1012.3
20260505073436 35 290 7.0 8.0 0.00 0.00 0.00 65 1012.4
20260505072933 36 311 7.0 8.0 0.00 0.00 0.00 64 1012.2
20260505072429 36 297 6.0 7.0 0.00 0.00 0.00 64 1012.3
20260505071925 36 319 5.0 6.0 0.00 0.00 0.00 64 1012.3
20260505071421 36 298 5.0 6.0 0.00 0.00 0.00 63 1012.5
20260505070919 37 269 7.0 8.0 0.00 0.00 0.00 63 1012.1
20260505070415 37 305 7.0 8.0 0.00 0.00 0.00 63 1012.2
20260505065911 37 290 7.0 9.0 0.00 0.00 0.00 62 1012.3
20260505065408 37 333 7.0 8.0 0.00 0.00 0.00 62 1012.4
20260505064905 37 281 7.0 9.0 0.00 0.00 0.00 62 1012.0
20260505064402 37 303 7.0 9.0 0.00 0.00 0.00 62 1012.3
20260505063901 37 286 6.0 8.0 0.00 0.00 0.00 62 1012.3
20260505063356 37 300 7.0 9.0 0.00 0.00 0.00 63 1012.1
20260505062853 37 302 4.0 5.0 0.00 0.00 0.00 63 1012.1
20260505062350 35 303 3.0 3.0 0.00 0.00 0.00 65 1012.0
20260505061847 35 269 3.0 3.0 0.00 0.00 0.00 66 1012.2
20260505061345 34 290 3.0 3.0 0.00 0.00 0.00 66 1012.2
20260505060842 34 274 3.0 3.0 0.00 0.00 0.00 67 1012.0
20260505060339 33 309 3.0 3.0 0.00 0.00 0.00 67 1011.8
20260505055835 33 301 4.0 6.0 0.00 0.00 0.00 67 1012.0
20260505055331 33 300 2.0 2.0 0.00 0.00 0.00 67 1012.0
20260505054828 33 304 3.0 3.0 0.00 0.00 0.00 66 1011.9
20260505054326 33 289 2.0 2.0 0.00 0.00 0.00 67 1011.9
20260505053824 32 308 2.0 2.0 0.00 0.00 0.00 68 1012.1
20260505053320 31 305 1.0 1.0 0.00 0.00 0.00 68 1012.0
20260505052817 32 297 1.0 1.0 0.00 0.00 0.00 67 1011.9
20260505052314 31 351 1.0 2.0 0.00 0.00 0.00 67 1012.0
20260505051811 31 18 1.0 1.0 0.00 0.00 0.00 68 1011.9
20260505051309 31 331 1.0 1.0 0.00 0.00 0.00 68 1011.8
20260505050807 31 330 0.0 1.0 0.00 0.00 0.00 67 1011.7
20260505050305 31 335 0.0 0.0 0.00 0.00 0.00 67 1011.8
20260505041735 35 326 4.0 5.0 0.00 0.00 0.00 60 1011.6
20260505041232 35 326 3.0 3.0 0.00 0.00 0.00 60 1011.5
20260505040729 36 289 3.0 5.0 0.00 0.00 0.00 59 1011.5
20260505040226 36 298 3.0 3.0 0.00 0.00 0.00 58 1011.3
20260505035723 36 316 5.0 6.0 0.00 0.00 0.00 59 1011.5
20260505035219 36 344 5.0 7.0 0.00 0.00 0.00 58 1011.3
20260505034716 36 306 3.0 3.0 0.00 0.00 0.00 59 1011.7
20260505034213 36 321 5.0 5.0 0.00 0.00 0.00 59 1011.3
20260505033709 35 318 4.0 5.0 0.00 0.00 0.00 60 1011.5
20260505033208 35 331 3.0 5.0 0.00 0.00 0.00 60 1011.4
20260505032705 36 311 3.0 5.0 0.00 0.00 0.00 60 1011.4
20260505032201 36 331 4.0 5.0 0.00 0.00 0.00 59 1011.4
20260505031658 36 337 3.0 3.0 0.00 0.00 0.00 58 1011.5
20260505031155 37 316 4.0 6.0 0.00 0.00 0.00 58 1011.1
20260505030652 37 320 3.0 5.0 0.00 0.00 0.00 58 1011.1
20260505030147 37 319 3.0 3.0 0.00 0.00 0.00 58 1011.1
20260505025643 37 349 4.0 5.0 0.00 0.00 0.00 57 1011.1
20260505025142 37 315 4.0 5.0 0.00 0.00 0.00 57 1010.7
20260505024639 38 357 3.0 3.0 0.00 0.00 0.00 57 1010.9
20260505024136 38 6 3.0 3.0 0.00 0.00 0.00 56 1010.6
20260505023634 38 329 5.0 7.0 0.00 0.00 0.00 56 1010.6
20260505023131 38 328 6.0 6.0 0.00 0.00 0.00 55 1010.6
20260505022628 39 310 6.0 7.0 0.00 0.00 0.00 54 1010.7
20260505022125 39 331 7.0 7.0 0.00 0.00 0.00 54 1010.3
20260505021622 39 314 4.0 7.0 0.00 0.00 0.00 54 1010.4
20260505021119 39 347 5.0 6.0 0.00 0.00 0.00 53 1010.3
20260505020614 40 319 5.0 7.0 0.00 0.00 0.00 53 1010.3
20260505020111 40 326 6.0 8.0 0.00 0.00 0.00 52 1010.0
20260505015608 41 350 9.0 11.0 0.00 0.00 0.00 51 1010.1
20260505015105 41 314 6.0 8.0 0.00 0.00 0.00 51 1010.0
20260505014601 41 317 7.0 8.0 0.00 0.00 0.00 51 1009.8
20260505014058 42 299 7.0 11.0 0.00 0.00 0.00 50 1009.9
20260505013555 42 338 6.0 8.0 0.00 0.00 0.00 50 1009.8
20260505013053 42 351 10.0 14.0 0.00 0.00 0.00 50 1009.8
20260505012551 42 2 7.0 9.0 0.00 0.00 0.00 50 1009.8
20260505012048 43 326 7.0 8.0 0.00 0.00 0.00 49 1009.7
20260505011543 43 340 6.0 7.0 0.00 0.00 0.00 48 1009.8
20260505011041 43 329 6.0 7.0 0.00 0.00 0.00 48 1009.6
20260505010536 44 301 10.0 14.0 0.00 0.00 0.00 47 1009.5
20260505010033 44 288 15.0 20.0 0.00 0.00 0.00 45 1009.3
20260505005529 44 304 11.0 18.0 0.00 0.00 0.00 45 1009.4
20260505005027 44 338 10.0 13.0 0.00 0.00 0.00 46 1009.6
20260505004523 44 281 11.0 14.0 0.00 0.00 0.00 47 1009.3
20260505004020 45 338 10.0 13.0 0.00 0.00 0.00 47 1009.7
20260505003517 45 313 11.0 15.0 0.00 0.00 0.00 47 1009.4
20260505003015 45 320 14.0 16.0 0.00 0.00 0.00 48 1009.5
20260505002509 45 336 13.0 15.0 0.00 0.00 0.00 48 1009.5
20260505002009 45 334 14.0 17.0 0.00 0.00 0.00 47 1009.3
20260505001506 46 314 13.0 17.0 0.00 0.00 0.00 47 1009.4
20260505001003 45 278 13.0 16.0 0.00 0.00 0.00 47 1009.4
20260505000500 45 358 10.0 16.0 0.00 0.00 0.00 48 1009.5
20260504235957 45 317 10.0 13.0 0.00 0.00 0.00 48 1009.4
20260504235454 46 344 12.0 15.0 0.00 0.00 0.00 47 1008.9
20260504234951 45 340 10.0 13.0 0.00 0.00 0.00 48 1009.2
20260504234448 46 318 9.0 11.0 0.00 0.00 0.00 47 1009.2
20260504233944 46 330 16.0 18.0 0.00 0.00 0.00 47 1009.2
20260504233440 46 336 15.0 21.0 0.00 0.00 0.00 47 1009.2
20260504232937 47 309 11.0 17.0 0.00 0.00 0.00 46 1009.2
20260504232434 47 324 16.0 22.0 0.00 0.00 0.00 46 1009.3
20260504231931 47 278 15.0 18.0 0.00 0.00 0.00 47 1009.2
20260504231427 47 268 11.0 11.0 0.00 0.00 0.00 47 1009.3
20260504230924 46 341 11.0 14.0 0.00 0.00 0.00 47 1009.0
20260504230421 46 293 10.0 10.0 0.00 0.00 0.00 48 1009.2
20260504225920 46 306 15.0 21.0 0.00 0.00 0.00 46 1008.8
20260504225416 47 308 15.0 21.0 0.00 0.00 0.00 46 1009.3
20260504224914 47 309 11.0 14.0 0.00 0.00 0.00 48 1008.7
20260504224410 46 300 14.0 16.0 0.00 0.00 0.00 46 1009.2
20260504223907 49 297 12.0 22.0 0.00 0.00 0.00 44 1008.6
20260504223403 47 306 14.0 17.0 0.00 0.00 0.00 44 1008.6
20260504222859 48 309 17.0 24.0 0.00 0.00 0.00 45 1008.7
20260504222356 48 311 17.0 20.0 0.00 0.00 0.00 45 1008.5
20260504221855 47 323 17.0 22.0 0.00 0.00 0.00 46 1008.8
20260504221351 47 311 12.0 18.0 0.00 0.00 0.00 47 1008.8
20260504220848 47 303 12.0 14.0 0.00 0.00 0.00 45 1008.4
20260504220344 48 311 15.0 18.0 0.00 0.00 0.00 47 1008.5
20260504215842 48 337 10.0 11.0 0.00 0.00 0.00 47 1008.5
20260504215338 48 302 15.0 18.0 0.00 0.00 0.00 48 1008.6
20260504214834 48 318 15.0 18.0 0.00 0.00 0.00 49 1008.6
20260504214331 49 304 12.0 14.0 0.00 0.00 0.00 49 1008.5
20260504213828 47 334 8.0 11.0 0.00 0.00 0.00 54 1008.6
20260504213324 49 301 15.0 20.0 0.00 0.00 0.00 50 1008.4
20260504212822 49 311 20.0 23.0 0.00 0.00 0.00 47 1008.5
20260504212317 48 331 11.0 15.0 0.00 0.00 0.00 50 1008.3
20260504211815 47 318 11.0 14.0 0.00 0.00 0.00 51 1008.7
20260504211311 47 317 10.0 14.0 0.00 0.00 0.00 51 1008.5
20260504210809 47 287 11.0 14.0 0.00 0.00 0.00 49 1008.3
20260504210306 48 309 18.0 24.0 0.00 0.00 0.00 49 1008.4
20260504205803 48 320 13.0 18.0 0.00 0.00 0.00 51 1008.5
20260504205301 48 296 14.0 17.0 0.00 0.00 0.00 51 1008.5
20260504204758 48 316 10.0 14.0 0.00 0.00 0.00 50 1008.7
20260504204256 48 321 7.0 10.0 0.00 0.00 0.00 50 1008.7
20260504203756 47 335 8.0 9.0 0.00 0.00 0.00 50 1008.6
20260504203252 48 303 12.0 15.0 0.00 0.00 0.00 50 1008.3
20260504202747 48 296 18.0 24.0 0.00 0.00 0.00 50 1008.4
20260504202245 48 295 11.0 15.0 0.00 0.00 0.00 51 1008.5
20260504201742 48 340 8.0 9.0 0.00 0.00 0.00 53 1008.5
20260504201239 47 299 13.0 20.0 0.00 0.00 0.00 54 1008.4
20260504200737 47 303 13.0 16.0 0.00 0.00 0.00 54 1008.6
20260504200232 48 299 14.0 21.0 0.00 0.00 0.00 52 1008.6
20260504195729 46 314 15.0 18.0 0.00 0.00 0.00 54 1008.6
20260504195225 47 327 14.0 17.0 0.00 0.00 0.00 54 1008.5
20260504194722 46 300 9.0 15.0 0.00 0.00 0.00 53 1008.6
20260504194218 47 256 15.0 18.0 0.00 0.00 0.00 51 1008.6
20260504193715 47 279 12.0 16.0 0.00 0.00 0.00 53 1008.6
20260504193212 46 316 11.0 13.0 0.00 0.00 0.00 54 1008.6
20260504192710 47 337 14.0 17.0 0.00 0.00 0.00 53 1008.4
20260504192208 46 300 12.0 16.0 0.00 0.00 0.00 51 1008.4
20260504191707 48 297 15.0 21.0 0.00 0.00 0.00 49 1008.4
20260504191203 49 284 15.0 20.0 0.00 0.00 0.00 48 1008.2
20260504190658 47 309 8.0 10.0 0.00 0.00 0.00 51 1008.3
20260504190155 48 323 15.0 20.0 0.00 0.00 0.00 49 1008.3
20260504185651 48 308 19.0 23.0 0.00 0.00 0.00 47 1008.2
20260504185147 49 282 11.0 16.0 0.00 0.00 0.00 49 1008.2
20260504184644 48 309 15.0 20.0 0.00 0.00 0.00 47 1008.3
20260504184133 48 339 15.0 20.0 0.00 0.00 0.00 46 1008.3
20260504183631 49 322 13.0 16.0 0.00 0.00 0.00 46 1008.5
20260504183128 49 322 16.0 18.0 0.00 0.00 0.00 45 1008.2
20260504182626 48 275 19.0 22.0 0.00 0.00 0.00 45 1008.0
20260504182123 47 298 16.0 17.0 0.00 0.00 0.00 47 1008.1
20260504181620 48 316 18.0 21.0 0.00 0.00 0.00 46 1008.0
20260504181118 47 315 15.0 17.0 0.00 0.00 0.00 46 1008.2
20260504180617 48 313 18.0 23.0 0.00 0.00 0.00 45 1008.0
20260504180115 48 303 16.0 20.0 0.00 0.00 0.00 46 1008.1
20260504175612 47 287 14.0 18.0 0.00 0.00 0.00 47 1008.2
20260504175109 46 278 21.0 27.0 0.00 0.00 0.00 48 1008.1
20260504174607 46 322 22.0 25.0 0.00 0.00 0.00 48 1008.1
20260504174103 46 307 13.0 16.0 0.00 0.00 0.00 48 1008.1
20260504173600 47 283 20.0 27.0 0.00 0.00 0.00 47 1008.1
20260504173058 47 312 16.0 18.0 0.00 0.00 0.00 48 1008.3
20260504172554 46 318 13.0 16.0 0.00 0.00 0.00 49 1008.3
20260504172050 46 301 17.0 23.0 0.00 0.00 0.00 48 1008.0
20260504171547 47 294 13.0 18.0 0.00 0.00 0.00 48 1007.9
20260504171044 46 324 13.0 16.0 0.00 0.00 0.00 48 1008.0
20260504170540 47 337 16.0 21.0 0.00 0.00 0.00 46 1008.0
20260504150918 41 307 11.0 15.0 0.00 0.00 0.00 59 1008.2
20260504150415 41 292 15.0 20.0 0.00 0.00 0.00 59 1008.4
20260504140841 42 337 16.0 18.0 0.00 0.00 0.00 58 1007.7
20260504140337 42 289 11.0 15.0 0.00 0.00 0.00 58 1007.7
20260504130806 41 283 9.0 13.0 0.00 0.00 0.00 65 1007.0
20260504130302 41 319 14.0 16.0 0.00 0.00 0.00 65 1007.1
20260504120226 42 308 12.0 17.0 0.00 0.00 0.00 63 1005.5
20260504110653 44 325 15.0 20.0 0.00 0.00 0.00 58 1004.7
20260504110149 44 294 12.0 14.0 0.00 0.00 0.00 57 1004.8
20260504100610 46 304 7.0 9.0 0.00 0.00 0.00 57 1004.3
20260504100108 47 3 13.0 16.0 0.00 0.00 0.00 56 1004.3